Probability
5 6 11 13 13 12 10 8 7 6 6 6 5 3 3 3 3 4 5 6 6 4 3 4 5 8 9 11 11 9 6 4 2 1 2 2 1 0 0 0 0 0 0
3 5 10 13 13 11 10 8 7 6 6 6 4 3 3 3 3 3 4 6 6 6 5 5 7 8 9 10 10 8 5 3 1 1 2 2 1 0 0 0 0 0 0
2 3 7 11 12 12 10 9 6 5 5 5 4 3 2 1 1 2 3 5 6 6 6 6 7 7 7 8 8 6 3 1 1 1 2 1 0 0 0 0 0 0 0
1 1 4 8 11 11 10 9 6 4 3 3 3 2 1 0 0 1 2 3 4 5 6 6 6 6 7 7 6 4 2 2 3 3 1 0 0 0 0 0 0 0 0
1 1 4 7 9 9 9 8 6 4 2 1 1 1 0 1 1 0 1 3 3 4 5 6 6 6 6 7 6 4 4 5 4 2 1 0 0 1 1 1 1 1 1
1 1 4 6 8 7 7 7 6 5 3 1 0 0 0 2 2 2 2 3 3 3 4 6 6 6 5 6 5 5 5 4 2 1 0 0 1 2 3 2 1 2 1
2 1 3 7 7 6 6 6 6 5 4 2 1 0 1 2 4 4 3 3 3 4 5 6 6 5 4 4 4 5 5 3 1 0 0 0 1 3 4 3 1 1 1
2 1 4 7 7 6 6 6 5 4 3 3 2 1 1 3 4 4 4 4 5 7 8 7 5 4 4 4 4 4 4 4 2 1 0 0 1 3 5 4 2 2 1
1 1 3 5 5 5 4 4 4 3 3 3 3 1 1 3 4 4 4 5 6 8 8 7 5 4 5 5 5 5 6 5 4 2 1 0 1 3 4 5 5 3 2
1 1 1 2 2 3 3 3 3 3 3 3 3 2 1 2 3 4 5 7 7 7 7 6 6 6 6 7 8 8 8 6 4 2 1 0 0 2 4 6 6 5 4
3 2 1 1 0 1 2 3 3 3 3 3 3 2 1 1 1 2 5 8 8 8 8 8 8 7 8 8 9 9 8 5 3 2 1 1 2 3 5 7 7 7 6
8 6 3 1 1 0 1 3 3 2 1 1 2 2 1 0 0 1 3 6 7 7 8 8 8 8 8 7 7 6 5 3 1 1 1 3 4 6 8 9 10 10 9
11 9 5 2 1 0 1 3 3 1 0 1 1 1 0 0 0 0 1 2 3 4 4 4 5 5 5 5 4 3 3 2 1 1 1 3 5 6 9 11 11 12 13
11 10 6 2 1 1 2 4 3 1 0 0 0 0 0 0 0 0 0 1 1 1 1 1 2 2 3 3 3 2 1 2 2 1 2 4 5 6 7 9 10 12 14
11 10 7 4 3 3 5 5 3 1 0 0 0 0 0 0 1 1 2 2 1 0 0 1 1 2 3 3 3 2 1 1 2 2 2 4 5 5 5 6 7 10 13
13 12 9 7 6 7 7 6 4 2 1 0 0 0 1 1 2 3 3 3 1 0 0 1 2 3 3 3 2 1 0 0 1 2 2 2 4 5 5 5 6 9 11
16 14 12 11 11 10 8 7 5 4 3 2 1 2 3 4 3 3 4 3 2 1 1 2 3 3 3 1 1 0 0 1 2 2 1 2 3 4 5 6 7 9 10
14 14 14 15 15 13 11 10 8 6 5 4 3 3 5 6 4 3 3 3 3 3 3 3 3 3 2 1 0 0 0 1 2 3 3 3 3 2 2 4 6 9 10
12 13 14 16 18 17 16 13 10 8 7 6 5 4 5 6 5 4 3 3 3 3 3 3 3 2 1 0 0 0 0 0 1 3 4 4 2 1 0 1 3 6 7
12 12 13 14 17 20 20 16 12 11 9 7 6 6 7 7 5 3 3 3 3 3 3 2 2 1 0 0 0 0 0 0 0 1 2 3 2 1 0 0 1 2 4
11 12 12 13 15 19 20 17 14 13 11 9 8 8 9 8 6 4 3 3 4 3 2 2 1 1 0 0 0 0 0 0 0 0 1 2 3 2 1 0 0 0 1
13 12 13 14 16 18 18 16 16 15 13 10 10 10 11 10 8 6 4 4 5 4 2 2 1 1 1 1 1 0 0 0 0 0 1 2 3 2 1 0 0 0 0
16 15 14 16 18 19 18 17 18 18 15 13 13 13 12 11 10 8 6 5 4 3 1 1 1 1 2 2 1 0 0 0 0 0 1 1 2 1 1 0 0 0 0
17 17 16 16 18 19 19 19 20 19 17 15 15 15 13 12 11 8 7 6 4 2 1 0 0 1 1 1 1 0 0 0 0 0 0 0 0 0 0 0 0 0 0
19 20 19 17 18 19 20 19 19 19 18 16 17 16 14 13 12 9 6 5 4 3 2 1 1 1 1 1 0 0 0 0 0 0 0 0 0 0 0 0 0 0 0
22 23 22 20 18 19 20 19 18 19 19 19 18 17 15 13 13 10 7 5 5 4 3 2 2 2 2 2 1 0 0 0 0 0 0 0 0 0 0 0 0 0 0
Wind_Speed
4 5 11 12 13 13 13 13 13 12 12 12 12 12 12 12 12 12 12 12 11 11 11 11 11 11 11 11 11 12 12 12 11 12 11 12 11 11 11 11 11 8 12
9 8 12 12 13 13 13 13 12 12 11 11 11 11 11 11 11 11 11 10 10 10 11 11 11 10 10 10 10 10 10 10 11 10 10 10 10 11 11 11 10 7 12
11 8 10 12 13 13 13 13 12 11 11 11 11 10 10 10 10 10 10 10 9 9 10 10 10 9 9 9 9 9 9 9 9 9 8 5 6 10 10 11 11 11 11
12 8 9 12 13 13 13 12 11 11 11 11 10 10 9 9 9 10 10 9 9 9 9 10 9 8 8 8 7 7 8 8 8 8 4 4 4 9 10 10 10 11 10
10 7 10 13 13 13 13 12 11 11 10 10 10 9 9 8 9 9 9 9 9 8 8 9 8 7 7 6 6 7 7 7 8 7 4 3 3 8 10 10 10 10 10
9 7 9 13 13 13 12 12 11 10 10 9 9 9 8 9 9 9 9 9 9 8 8 8 7 7 6 5 5 5 5 6 6 4 4 4 3 8 10 10 10 10 9
9 6 8 13 13 12 12 11 10 10 9 9 9 8 8 9 9 9 9 9 9 8 7 7 6 6 6 5 4 4 4 5 5 4 4 4 4 9 9 9 9 9 9
11 7 7 13 14 12 11 11 10 9 9 9 8 8 8 9 9 8 8 8 8 7 7 6 5 5 5 4 4 4 4 5 6 5 3 3 6 9 9 9 9 9 9
10 8 6 6 9 11 11 10 10 9 8 8 8 7 8 8 8 8 7 7 7 7 6 6 5 4 3 3 3 3 4 5 3 3 4 3 7 8 9 9 8 9 9
8 7 6 5 5 5 6 10 10 9 8 8 8 7 7 7 6 6 5 6 7 6 6 5 4 3 2 2 2 2 4 4 2 3 2 4 8 8 9 9 9 8 9
7 5 6 6 5 5 5 7 7 8 7 6 5 6 5 2 2 2 4 5 6 5 5 4 3 3 2 2 1 1 2 2 3 2 2 6 8 9 9 9 9 9 9
8 7 6 6 6 5 5 4 3 3 3 2 2 2 2 2 1 2 3 4 5 4 3 2 2 1 1 1 1 1 1 2 2 2 3 7 8 9 9 9 9 9 9
10 8 7 7 6 5 3 4 2 1 2 2 2 2 2 2 1 1 1 1 1 2 1 1 1 1 1 1 1 1 1 1 1 2 2 6 7 8 9 8 8 8 9
9 8 6 6 6 5 4 4 3 2 2 2 2 2 2 2 1 2 1 1 1 1 1 1 1 1 1 0 0 1 1 1 1 1 2 5 6 6 7 7 8 8 8
7 7 7 6 6 5 4 3 4 3 3 3 2 2 3 2 2 2 1 1 1 1 1 1 1 0 1 1 1 1 2 2 2 2 1 5 6 6 6 7 8 8 8
6 6 6 6 6 6 4 3 3 3 3 3 2 2 3 2 2 2 2 2 1 1 2 1 1 1 1 1 2 2 2 2 2 2 1 2 5 5 6 6 6 7 8
7 6 5 6 5 5 5 4 3 3 3 2 2 2 3 3 3 3 2 2 1 1 2 2 2 2 2 2 2 1 1 1 2 2 1 1 2 3 4 4 5 6 6
6 6 5 6 6 5 4 4 3 3 3 2 2 2 3 3 3 3 2 1 1 2 2 2 2 2 2 1 1 1 1 1 1 1 1 1 1 1 2 3 4 4 5
7 6 5 5 6 5 5 4 3 3 3 2 2 2 2 3 4 3 2 1 2 2 2 2 2 2 1 1 0 0 0 0 1 1 1 1 1 1 1 2 3 4 5
7 6 5 5 5 5 4 3 3 3 2 2 2 2 3 3 3 3 2 2 2 2 2 1 2 1 1 0 1 1 1 0 0 1 1 1 1 2 2 1 1 3 5
6 6 6 5 4 4 3 3 3 2 2 2 2 3 3 3 3 3 3 2 2 2 1 2 2 2 1 1 2 2 3 2 0 1 1 1 1 1 1 2 1 1 2
8 7 6 5 5 4 3 3 3 3 2 2 1 2 2 3 3 3 3 2 2 2 2 2 2 2 0 1 2 2 2 3 3 1 1 1 1 1 1 2 2 2 2
8 8 7 5 5 4 4 3 3 2 2 2 1 0 1 3 3 3 3 3 2 2 2 1 2 2 1 0 1 3 2 2 2 3 2 1 1 1 1 1 2 2 3
9 8 7 6 6 5 5 5 5 4 2 2 1 1 1 2 3 4 4 3 2 2 2 2 2 1 2 1 1 0 2 3 2 2 3 2 2 1 2 1 2 2 2
7 7 6 5 5 5 5 6 5 3 2 2 2 2 1 1 2 3 3 3 2 2 2 2 2 2 2 2 1 0 0 1 1 2 2 3 3 2 2 1 1 1 2
6 6 6 6 4 4 5 6 6 5 3 3 2 2 1 0 0 1 2 3 3 2 2 2 2 2 1 1 1 1 1 1 1 1 2 2 2 3 2 1 1 1 1
Wind_Direction
157 155 131 122 116 112 108 106 102 98 95 93 93 93 94 96 101 104 106 106 108 111 116 116 115 113 113 115 116 116 115 116 119 123 126 124 122 119 120 118 117 116 118
151 146 131 125 121 115 112 108 105 102 100 98 97 97 97 98 102 106 107 107 107 110 116 119 119 117 117 118 118 118 116 117 119 123 124 124 124 122 122 121 121 125 125
136 136 132 128 125 120 115 112 109 106 104 101 100 100 100 101 104 110 112 112 110 111 117 121 120 119 121 122 120 119 117 116 118 124 120 111 120 123 124 125 124 127 127
136 137 134 132 128 124 119 116 113 108 105 103 101 101 103 104 106 111 115 114 112 113 117 123 120 122 124 126 126 123 121 116 113 121 111 114 122 124 128 128 129 131 130
134 138 139 135 130 127 124 120 117 113 109 107 103 102 102 106 110 114 116 115 115 116 118 121 121 119 125 127 127 123 121 113 111 111 106 111 117 130 132 132 134 134 133
136 140 142 137 132 130 129 126 123 119 115 110 105 102 102 107 114 118 117 119 120 122 123 124 124 122 123 125 127 125 120 115 113 115 115 121 125 138 138 137 141 140 138
138 142 144 138 135 134 132 130 128 126 121 114 107 106 106 106 108 111 116 124 126 126 128 129 128 125 126 127 128 124 118 113 120 127 128 132 145 150 149 145 145 146 146
141 143 146 143 140 138 135 133 131 130 127 120 114 110 110 110 109 110 115 123 127 129 132 133 129 121 120 125 131 131 127 133 128 133 136 148 157 159 157 154 153 152 151
139 141 144 146 142 141 140 140 137 133 130 128 122 118 116 118 119 117 118 127 132 137 138 139 136 131 131 129 130 130 134 139 137 143 149 155 160 162 162 160 161 161 158
138 144 145 142 142 142 145 147 144 140 137 135 132 128 128 128 129 129 129 136 142 144 143 141 134 132 127 117 126 137 151 147 147 148 157 168 166 166 165 165 166 167 166
143 148 151 151 148 146 150 154 150 148 147 145 144 143 139 121 123 133 142 141 146 152 145 136 126 119 107 113 131 148 136 137 146 159 174 172 173 173 170 169 171 173 173
157 159 158 158 160 162 160 144 149 151 146 140 140 136 122 126 142 146 148 149 145 144 138 119 112 90 48 72 72 85 119 131 143 167 174 175 178 176 175 176 177 178 180
165 162 164 162 161 164 154 146 154 152 146 148 151 141 128 119 121 108 101 121 124 128 107 96 73 50 52 70 73 114 135 131 150 175 176 177 179 178 180 182 182 184 187
153 158 160 159 156 162 151 152 156 152 149 150 157 144 129 119 117 118 111 116 104 100 107 92 100 75 30 58 137 108 114 136 151 163 174 176 175 179 185 192 192 191 190
145 155 159 153 153 152 148 156 149 154 151 152 147 142 133 131 139 137 120 113 127 122 121 119 112 74 41 46 58 95 114 131 147 150 170 180 179 179 185 198 204 202 201
146 152 155 151 153 148 147 149 149 151 148 139 140 145 140 138 137 130 119 118 124 131 126 124 114 90 86 81 63 80 107 119 138 153 171 184 182 187 196 203 212 213 213
148 147 147 151 151 150 148 149 146 149 143 144 146 137 126 124 126 123 119 113 118 107 108 101 80 73 79 72 62 52 93 101 131 145 159 181 188 189 196 203 218 222 222
137 138 149 151 146 145 140 138 136 137 138 142 137 129 125 120 124 119 117 115 107 92 94 101 90 80 64 64 50 25 78 96 133 147 157 185 184 189 204 205 221 223 226
145 140 140 141 143 144 138 127 125 126 130 138 133 133 133 122 126 123 127 124 105 89 80 99 87 102 95 66 53 42 64 118 155 146 156 190 190 186 202 214 227 230 233
139 140 134 133 139 136 127 115 106 106 120 130 136 145 142 131 129 125 121 113 104 90 72 82 98 80 110 128 71 38 359 354 141 180 205 205 205 196 193 192 236 241 232
134 137 132 128 135 133 136 141 140 146 152 142 155 156 142 134 132 126 117 107 108 114 120 115 107 88 50 66 68 17 353 347 310 252 228 223 241 219 202 203 218 235 240
150 149 144 145 144 147 161 159 152 148 154 154 154 138 142 135 136 140 127 127 124 118 101 95 107 105 129 105 114 90 7 347 338 313 278 205 228 257 233 214 206 211 218
155 159 158 151 147 149 138 118 108 87 71 67 76 105 154 139 137 131 134 134 134 135 144 139 130 128 144 339 122 136 137 231 304 324 311 295 278 256 250 238 210 213 213
168 163 156 152 146 141 134 134 136 139 150 175 175 175 145 135 142 143 143 143 144 144 149 161 134 137 135 139 341 83 162 165 156 309 321 318 303 283 273 263 236 228 227
156 153 152 141 135 140 142 144 141 135 149 141 129 127 138 135 154 151 149 148 149 157 157 144 129 127 141 148 162 183 79 76 130 156 277 311 321 306 282 255 238 236 234
141 147 150 146 150 154 151 150 150 148 145 134 133 152 161 129 170 164 156 159 163 165 170 172 156 146 149 135 135 137 148 161 194 169 211 269 292 298 304 302 286 267 245